| time (UTC) | temp F | wind direction | speed knots | gust knots | rain 1hr in | rain 24hr in | rain mn in | humidity % | barometer mb |
| 20260505221555 | 55 | 0 | 0.0 | 0.0 | 0.00 | 0.66 | 0.00 | 93 | 1012.4 |
| 20260505220050 | 55 | 0 | 0.0 | 2.6 | 0.00 | 0.66 | 0.00 | 93 | 1012.3 |
| 20260505214548 | 55 | 0 | 0.0 | 2.6 | 0.00 | 0.66 | 0.66 | 92 | 1012.6 |
| 20260505213048 | 55 | 0 | 0.0 | 2.6 | 0.00 | 0.66 | 0.66 | 92 | 1012.6 |
| 20260505211552 | 55 | 0 | 0.9 | 3.5 | 0.00 | 0.66 | 0.66 | 91 | 1012.7 |
| 20260505210049 | 56 | 0 | 0.0 | 0.0 | 0.00 | 0.66 | 0.66 | 91 | 1012.7 |
| 20260505204548 | 56 | 0 | 0.0 | 0.0 | 0.00 | 0.66 | 0.66 | 91 | 1012.9 |
| 20260505203050 | 56 | 0 | 0.0 | 0.0 | 0.00 | 0.66 | 0.66 | 90 | 1012.9 |
| 20260505201548 | 56 | 0 | 0.0 | 0.0 | 0.00 | 0.66 | 0.66 | 90 | 1012.9 |
| 20260505200048 | 56 | 0 | 0.0 | 2.6 | 0.00 | 0.66 | 0.66 | 89 | 1012.8 |
| 20260505194557 | 56 | 0 | 0.0 | 0.0 | 0.00 | 0.66 | 0.66 | 89 | 1012.8 |
| 20260505193104 | 56 | 86 | 0.9 | 2.6 | 0.00 | 0.66 | 0.66 | 89 | 1012.8 |
| 20260505191544 | 56 | 92 | 1.7 | 3.5 | 0.00 | 0.66 | 0.66 | 88 | 1012.6 |
| 20260505190053 | 56 | 94 | 1.7 | 2.6 | 0.00 | 0.66 | 0.66 | 88 | 1012.5 |
| 20260505184555 | 56 | 0 | 0.0 | 0.0 | 0.00 | 0.66 | 0.66 | 88 | 1012.5 |
| 20260505183051 | 57 | 0 | 0.0 | 3.5 | 0.00 | 0.66 | 0.66 | 88 | 1012.5 |
| 20260505181548 | 57 | 0 | 0.0 | 3.5 | 0.00 | 0.66 | 0.66 | 88 | 1012.4 |
| 20260505180045 | 57 | 36 | 1.7 | 3.5 | 0.00 | 0.66 | 0.66 | 87 | 1012.4 |
| 20260505174546 | 57 | 16 | 1.7 | 4.3 | 0.00 | 0.66 | 0.66 | 87 | 1012.4 |
| 20260505173046 | 57 | 344 | 1.7 | 6.1 | 0.00 | 0.66 | 0.66 | 86 | 1012.5 |
| 20260505171549 | 57 | 5 | 1.7 | 3.5 | 0.00 | 0.66 | 0.66 | 85 | 1012.5 |
| 20260505170046 | 58 | 327 | 1.7 | 4.3 | 0.00 | 0.66 | 0.66 | 86 | 1012.5 |
| 20260505164545 | 57 | 340 | 2.6 | 4.3 | 0.00 | 0.66 | 0.66 | 85 | 1012.7 |
| 20260505163045 | 58 | 344 | 0.9 | 4.3 | 0.00 | 0.66 | 0.66 | 83 | 1012.7 |
| 20260505161547 | 58 | 311 | 2.6 | 4.3 | 0.00 | 0.66 | 0.66 | 82 | 1012.5 |
| 20260505153056 | 58 | 17 | 2.6 | 4.3 | 0.00 | 0.66 | 0.66 | 83 | 1012.8 |
| 20260505151551 | 57 | 21 | 1.7 | 3.5 | 0.00 | 0.66 | 0.66 | 84 | 1012.8 |
| 20260505124550 | 55 | 308 | 0.9 | 3.5 | 0.00 | 0.66 | 0.66 | 89 | 1013.7 |
| 20260505123057 | 55 | 355 | 0.9 | 3.5 | 0.00 | 0.66 | 0.66 | 89 | 1013.8 |
| 20260505121543 | 54 | 279 | 2.6 | 3.5 | 0.00 | 0.66 | 0.66 | 89 | 1013.7 |
| 20260505120054 | 54 | 284 | 2.6 | 7.0 | 0.00 | 0.66 | 0.66 | 89 | 1013.8 |
| 20260505114552 | 55 | 347 | 2.6 | 4.3 | 0.00 | 0.66 | 0.66 | 88 | 1013.6 |
| 20260505113051 | 55 | 325 | 0.9 | 5.2 | 0.00 | 0.66 | 0.66 | 88 | 1013.9 |
| 20260505111546 | 55 | 0 | 0.0 | 0.9 | 0.00 | 0.66 | 0.66 | 90 | 1013.9 |
| 20260505101548 | 52 | 0 | 0.0 | 0.0 | 0.00 | 0.66 | 0.65 | 93 | 1014.1 |
| 20260505100045 | 52 | 206 | 0.9 | 4.3 | 0.00 | 0.66 | 0.65 | 93 | 1014.3 |
| 20260505094548 | 52 | 245 | 3.5 | 6.1 | 0.00 | 0.66 | 0.65 | 93 | 1014.4 |
| 20260505093045 | 52 | 257 | 1.7 | 2.6 | 0.00 | 0.66 | 0.65 | 92 | 1014.1 |
| 20260505091613 | 52 | 251 | 1.7 | 5.2 | 0.00 | 0.66 | 0.65 | 92 | 1014.2 |
| 20260505090104 | 52 | 252 | 0.9 | 6.1 | 0.00 | 0.65 | 0.64 | 90 | 1014.2 |
| 20260505084602 | 53 | 197 | 0.9 | 3.5 | 0.00 | 0.65 | 0.64 | 89 | 1013.9 |
| 20260505083104 | 52 | 214 | 0.9 | 3.5 | 0.00 | 0.65 | 0.64 | 90 | 1013.9 |
| 20260505081557 | 52 | 226 | 1.7 | 3.5 | 0.00 | 0.65 | 0.64 | 90 | 1013.9 |
| 20260505080057 | 52 | 237 | 1.7 | 3.5 | 0.00 | 0.65 | 0.64 | 90 | 1013.9 |
| 20260505074545 | 52 | 250 | 1.7 | 3.5 | 0.00 | 0.65 | 0.64 | 91 | 1013.9 |
| 20260505073052 | 52 | 0 | 0.0 | 7.0 | 0.00 | 0.65 | 0.64 | 92 | 1013.8 |
| 20260505071549 | 52 | 207 | 3.5 | 6.1 | 0.00 | 0.65 | 0.64 | 92 | 1013.8 |
| 20260505070052 | 52 | 228 | 1.7 | 3.5 | 0.00 | 0.65 | 0.64 | 93 | 1013.6 |
| 20260505064549 | 52 | 0 | 0.0 | 0.0 | 0.00 | 0.65 | 0.64 | 93 | 1013.6 |
| 20260505063052 | 52 | 0 | 0.0 | 1.7 | 0.00 | 0.65 | 0.64 | 93 | 1013.6 |
| 20260505061550 | 52 | 269 | 1.7 | 3.5 | 0.00 | 0.65 | 0.64 | 93 | 1013.7 |
| 20260505060100 | 52 | 248 | 3.5 | 6.1 | 0.00 | 0.65 | 0.64 | 93 | 1013.6 |
| 20260505054553 | 52 | 250 | 3.5 | 5.2 | 0.00 | 0.65 | 0.64 | 94 | 1013.6 |
| 20260505053052 | 52 | 228 | 1.7 | 3.5 | 0.00 | 0.65 | 0.64 | 93 | 1013.5 |
| 20260505051549 | 52 | 216 | 1.7 | 3.5 | 0.01 | 0.65 | 0.64 | 93 | 1013.4 |
| 20260505041553 | 52 | 246 | 2.6 | 5.2 | 0.24 | 0.63 | 0.62 | 93 | 1013.7 |
| 20260505040049 | 52 | 232 | 2.6 | 7.8 | 0.22 | 0.55 | 0.55 | 93 | 1013.7 |
| 20260505034546 | 52 | 269 | 7.0 | 11.3 | 0.18 | 0.49 | 0.48 | 93 | 1014.2 |
| 20260505033051 | 52 | 232 | 5.2 | 9.6 | 0.16 | 0.44 | 0.44 | 93 | 1014.3 |
| 20260505031544 | 52 | 213 | 6.1 | 11.3 | 0.12 | 0.38 | 0.37 | 93 | 1014.2 |
| 20260505030109 | 52 | 221 | 3.5 | 6.1 | 0.07 | 0.33 | 0.33 | 93 | 1014.2 |
| 20260505024551 | 52 | 196 | 2.6 | 9.6 | 0.06 | 0.31 | 0.30 | 92 | 1014.1 |
| 20260505023048 | 52 | 213 | 6.1 | 8.7 | 0.03 | 0.28 | 0.27 | 92 | 1014.3 |
| 20260505021548 | 52 | 206 | 3.5 | 6.1 | 0.01 | 0.25 | 0.25 | 92 | 1014.2 |
| 20260505020048 | 52 | 232 | 0.9 | 3.5 | 0.03 | 0.25 | 0.25 | 92 | 1014.3 |
| 20260505014603 | 52 | 140 | 0.9 | 3.5 | 0.06 | 0.25 | 0.24 | 92 | 1014.4 |
| 20260505013052 | 52 | 0 | 0.0 | 3.5 | 0.11 | 0.25 | 0.24 | 92 | 1014.7 |
| 20260505011545 | 52 | 159 | 0.0 | 2.6 | 0.14 | 0.24 | 0.23 | 91 | 1015.0 |
| 20260505010054 | 52 | 0 | 0.9 | 2.6 | 0.14 | 0.22 | 0.22 | 91 | 1015.0 |
| 20260505004550 | 52 | 106 | 0.9 | 2.6 | 0.11 | 0.18 | 0.18 | 90 | 1015.3 |
| 20260505003057 | 53 | 156 | 0.9 | 5.2 | 0.10 | 0.14 | 0.13 | 90 | 1015.6 |
| 20260505001559 | 53 | 229 | 1.7 | 5.2 | 0.07 | 0.09 | 0.08 | 89 | 1015.7 |
| 20260505000053 | 53 | 202 | 1.7 | 4.3 | 0.05 | 0.07 | 0.07 | 88 | 1016.0 |
| 20260504234549 | 53 | 186 | 1.7 | 7.8 | 0.04 | 0.06 | 0.05 | 87 | 1016.3 |
| 20260504233048 | 54 | 174 | 3.5 | 6.1 | 0.01 | 0.03 | 0.02 | 85 | 1016.4 |
| 20260504231548 | 54 | 189 | 3.5 | 7.8 | 0.01 | 0.02 | 0.01 | 84 | 1016.6 |
| 20260504230046 | 54 | 187 | 2.6 | 5.2 | 0.01 | 0.02 | 0.01 | 84 | 1016.7 |
| 20260504224548 | 55 | 217 | 1.7 | 4.3 | 0.00 | 0.01 | 0.00 | 83 | 1016.8 |
| 20260504223102 | 55 | 239 | 2.6 | 5.2 | 0.01 | 0.01 | 0.00 | 81 | 1017.2 |